This is the latest recevied weather packets stored in our database for station/object KD8ZLZ-13. If no packets are shown the sender has not sent any weather packets the latest 1 day(s).
| Time | Temp. | Humidity | Pressure | Rain* | Wind** | Luminosity | Snow |
|---|---|---|---|---|---|---|---|
| 1778032241 | 10° C | 60% | 1009.2 hPa | 0 mm | 0 m/s | 0 W/m² | - |
| 1778031641 | 10° C | 62% | 1009.2 hPa | 0 mm | 0 m/s | 0 W/m² | - |
| 1778031041 | 10° C | 63% | 1009.2 hPa | 0 mm | 0 m/s | 0 W/m² | - |
| 1778030441 | 10.56° C | 54% | 1009.2 hPa | 0 mm | 0.45 m/s, 205° | 0 W/m² | - |
| 1778029841 | 11.11° C | 51% | 1009.2 hPa | 0 mm | 0.89 m/s, 284° | 0 W/m² | - |
| 1778029241 | 11.11° C | 51% | 1009.2 hPa | 0 mm | 0.45 m/s, 222° | 0 W/m² | - |
| 1778028641 | 11.11° C | 54% | 1009.2 hPa | 0 mm | 0.45 m/s, 195° | 0 W/m² | - |
| 1778028047 | 11.67° C | 52% | 1009.2 hPa | 0 mm | 0.45 m/s, 201° | 1 W/m² | - |
| 1778027441 | 11.67° C | 51% | 1009.2 hPa | 0 mm | 0.45 m/s, 218° | 3 W/m² | - |
| 1778026841 | 11.67° C | 51% | 1009.2 hPa | 0 mm | 0.45 m/s, 211° | 6 W/m² | - |
| 1778026241 | 11.67° C | 47% | 1008.5 hPa | 0 mm | 0.89 m/s, 284° | 13 W/m² | - |
| 1778025641 | 11.67° C | 46% | 1008.5 hPa | 0 mm | 1.34 m/s, 263° | 14 W/m² | - |
| 1778025041 | 12.22° C | 49% | 1008.5 hPa | 0 mm | 0.89 m/s, 284° | 19 W/m² | - |
| 1778024441 | 12.22° C | 50% | 1008.5 hPa | 0 mm | 1.34 m/s, 283° | 26 W/m² | - |
| 1778023841 | 12.22° C | 51% | 1008.5 hPa | 0 mm | 0.89 m/s, 256° | 28 W/m² | - |
| 1778023241 | 12.22° C | 52% | 1008.5 hPa | 0 mm | 0.89 m/s, 284° | 40 W/m² | - |
| 1778022641 | 12.22° C | 53% | 1008.8 hPa | 0 mm | 0.89 m/s, 274° | 50 W/m² | - |
| 1778022041 | 12.78° C | 54% | 1008.5 hPa | 0 mm | 1.34 m/s, 267° | 54 W/m² | - |
| 1778021441 | 12.78° C | 56% | 1008.5 hPa | 0 mm | 1.34 m/s, 283° | 48 W/m² | - |
| 1778020841 | 12.78° C | 59% | 1008.5 hPa | 0 mm | 0.89 m/s, 272° | 63 W/m² | - |
| 1778020241 | 12.78° C | 60% | 1008.5 hPa | 0 mm | 0.45 m/s, 286° | 83 W/m² | - |
| 1778019641 | 12.78° C | 61% | 1008.8 hPa | 0 mm | 0.89 m/s, 275° | 103 W/m² | - |
| 1778019041 | 12.78° C | 61% | 1008.5 hPa | 0 mm | 0.89 m/s, 264° | 123 W/m² | - |
| 1778018441 | 12.78° C | 61% | 1008.5 hPa | 0 mm | 0.89 m/s, 218° | 135 W/m² | - |
| 1778017841 | 12.78° C | 63% | 1008.5 hPa | 0 mm | 0.45 m/s, 210° | 156 W/m² | - |
* Rain latest hour (hover to see other rain measurements)
** Current wind speed in m/s (hover to see current wind gust speed)